Simultaneous Nadir Overpasses (SNOs) Predictions

Prediction of SNOs between GOES-16 and NPP Satellite Orbit:

Table of predicted SNOs for the next 14.0 days since TLE Epoch: 5/11/2024
Index Date Time (GOES-16) GOES-16 Lat,Lon NPP Lat,Lon Distance(km) Time Diff (sec)
1 05/12/2024 06:33:01 -0.02, -75.21 0.29, -76.61 160.21 80
2 05/13/2024 06:11:36 -0.02, -75.21 -0.72, -72.08 356.95 80
3 05/14/2024 18:36:11 0.02, -75.22 -0.44, -77.38 246.38 80
4 05/15/2024 18:14:45 0.02, -75.23 0.53, -72.84 271.49 80
5 05/17/2024 06:39:11 -0.01, -75.25 0.63, -78.11 325.55 80
6 05/18/2024 06:17:45 -0.01, -75.26 -0.41, -73.58 192.76 80
7 05/19/2024 18:42:20 0.01, -75.28 -0.78, -78.87 409.05 80
8 05/20/2024 18:20:53 0.01, -75.30 0.20, -74.33 109.64 80
9 05/22/2024 06:45:20 -0.01, -75.33 0.93, -79.60 486.48 80
10 05/23/2024 06:23:53 -0.01, -75.35 -0.06, -75.06 32.34 80
